sat.trackr.live / text

‹ back to catalog

STARLINK-33686

NORAD 63422 · 2025-065Z

PAYLOAD ACTIVE UNKNOWN

§ Identity

Operator
Country
US
Launch date
2025-03-31
Launch site
AFETR
Launch vehicle
Mass (kg)
RCS (m²)

Purposes: comms

External: N2YO · Heavens-Above · Gunter

§ Orbital elements

Epoch: 2026-09-20T21:34:45.358176Z

Period
94.27 min
Inclination
43.0032°
Eccentricity
0.0001922
Mean motion
15.27582116 rev/d
Perigee alt
481.7 km
Apogee alt
484.4 km
Semi-major
6,861.2 km
B*
3.4769e-4
RAAN
84.6663°
Arg perigee
254.4156°
Mean anomaly
105.6484°
Rev number
8,269

§ Raw data

STARLINK-336861 63422U 25065Z   26263.89913609  .00009318  00000+0  34769-3 0  99912 63422  43.0032  84.6663 0001922 254.4156 105.6484 15.27582116 82696

JSON: /api/v1/satellites/63422 · /tle

For live sub-satellite position, see the globe view (requires WebGL).

§ Visibility from observer

Set your observer location to see the next 7 days of passes ≥ 10°. The values pass through the URL so the page stays shareable.

No JS? Fill the form by hand. The geolocation button needs JavaScript.